Terminal Aerodrome Forecast
Issued by NWS

Home | Current Version | Previous Version | Graphics & Text | Print | Product List | Glossary On
Versions: 1 2 3 4 5 6 7 8 9 10 11 12 13 14 15 16 17 18 19
000
FTUS43 KTOP 252100 AAA
TAFFOE
TAF AMD
KFOE 252110Z 2521/2618 17019G25KT P6SM SCT040
     FM252300 18012G22KT P6SM VCTS SCT020 BKN030CB
     FM260400 21010KT P6SM FEW040 SCT080=

USA.gov is the U.S. government's official web portal to all federal, state and local government web resources and services.